Year,Month,Day,Hour,Minute,Value (Times are PST for temperature in C)
2022,10,16,00,00,17.90
2022,10,16,00,01,17.90
2022,10,16,00,02,18.00
2022,10,16,00,03,18.00
2022,10,16,00,04,18.10
2022,10,16,00,05,18.10
2022,10,16,00,06,18.10
2022,10,16,00,07,18.20
2022,10,16,00,08,18.20
2022,10,16,00,09,18.20
2022,10,16,00,10,18.20
2022,10,16,00,11,18.20
2022,10,16,00,12,18.20
2022,10,16,00,13,18.20
2022,10,16,00,14,18.30
2022,10,16,00,15,18.30
2022,10,16,00,16,18.30
2022,10,16,00,17,18.30
2022,10,16,00,18,18.30
2022,10,16,00,19,18.30
2022,10,16,00,20,18.30
2022,10,16,00,21,18.30
2022,10,16,00,22,18.30
2022,10,16,00,23,18.30
2022,10,16,00,24,18.30
2022,10,16,00,25,18.30
2022,10,16,00,26,18.30
2022,10,16,00,27,18.30
2022,10,16,00,28,18.30
2022,10,16,00,29,18.30
2022,10,16,00,30,18.30
2022,10,16,00,31,18.20
2022,10,16,00,32,18.20
2022,10,16,00,33,18.20
2022,10,16,00,34,18.20
2022,10,16,00,35,18.20
2022,10,16,00,36,18.20
2022,10,16,00,37,18.10
2022,10,16,00,38,18.10
2022,10,16,00,39,18.10
2022,10,16,00,40,18.10
2022,10,16,00,41,18.10
2022,10,16,00,42,18.10
2022,10,16,00,43,18.10
2022,10,16,00,44,18.10
2022,10,16,00,45,18.00
2022,10,16,00,46,18.00
2022,10,16,00,47,18.00
2022,10,16,00,48,18.00
2022,10,16,00,49,17.90
2022,10,16,00,50,17.90
2022,10,16,00,51,17.90
2022,10,16,00,52,17.90
2022,10,16,00,53,17.90
2022,10,16,00,54,17.90
2022,10,16,00,55,17.90
2022,10,16,00,56,18.00
2022,10,16,00,57,18.00
2022,10,16,00,58,18.00
2022,10,16,00,59,18.00
2022,10,16,01,00,18.00
2022,10,16,01,01,18.00
2022,10,16,01,02,18.00
2022,10,16,01,03,18.00
2022,10,16,01,04,18.00
2022,10,16,01,05,17.90
2022,10,16,01,06,17.90
2022,10,16,01,07,17.90
2022,10,16,01,08,17.80
2022,10,16,01,09,17.80
2022,10,16,01,10,17.80
2022,10,16,01,11,17.70
2022,10,16,01,12,17.70
2022,10,16,01,13,17.70
2022,10,16,01,14,17.70
2022,10,16,01,15,17.70
2022,10,16,01,16,17.70
2022,10,16,01,17,17.70
2022,10,16,01,18,17.70
2022,10,16,01,19,17.70
2022,10,16,01,20,17.70
2022,10,16,01,21,17.80
2022,10,16,01,22,17.80
2022,10,16,01,23,17.80
2022,10,16,01,24,17.80
2022,10,16,01,25,17.80
2022,10,16,01,26,17.80
2022,10,16,01,27,17.80
2022,10,16,01,28,17.80
2022,10,16,01,29,17.80
2022,10,16,01,30,17.80
2022,10,16,01,31,17.80
2022,10,16,01,32,17.70
2022,10,16,01,33,17.70
2022,10,16,01,34,17.70
2022,10,16,01,35,17.70
2022,10,16,01,36,17.70
2022,10,16,01,37,17.70
2022,10,16,01,38,17.70
2022,10,16,01,39,17.70
2022,10,16,01,40,17.70
2022,10,16,01,41,17.70
2022,10,16,01,42,17.80
2022,10,16,01,43,17.80
2022,10,16,01,44,17.80
2022,10,16,01,45,17.80
2022,10,16,01,46,17.90
2022,10,16,01,47,17.90
2022,10,16,01,48,17.90
2022,10,16,01,49,17.90
2022,10,16,01,50,17.90
2022,10,16,01,51,17.90
2022,10,16,01,52,18.00
2022,10,16,01,53,18.00
2022,10,16,01,54,18.00
2022,10,16,01,55,18.00
2022,10,16,01,56,18.00
2022,10,16,01,57,18.00
2022,10,16,01,58,18.00
2022,10,16,01,59,18.00
2022,10,16,02,00,17.90
2022,10,16,02,01,17.90
2022,10,16,02,02,17.90
2022,10,16,02,03,17.90
2022,10,16,02,04,17.90
2022,10,16,02,05,17.90
2022,10,16,02,06,17.90
2022,10,16,02,07,18.00
2022,10,16,02,08,18.00
2022,10,16,02,09,18.00
2022,10,16,02,10,18.10
2022,10,16,02,11,18.10
2022,10,16,02,12,18.10
2022,10,16,02,13,18.10
2022,10,16,02,14,18.10
2022,10,16,02,15,18.10
2022,10,16,02,16,18.10
2022,10,16,02,17,18.10
2022,10,16,02,18,18.10
2022,10,16,02,19,18.10
2022,10,16,02,20,18.10
2022,10,16,02,21,18.10
2022,10,16,02,22,18.10
2022,10,16,02,23,18.10
2022,10,16,02,24,18.10
2022,10,16,02,25,18.10
2022,10,16,02,26,18.20
2022,10,16,02,27,18.20
2022,10,16,02,28,18.20
2022,10,16,02,29,18.20
2022,10,16,02,30,18.20
2022,10,16,02,31,18.20
2022,10,16,02,32,18.20
2022,10,16,02,33,18.20
2022,10,16,02,34,18.20
2022,10,16,02,35,18.20
2022,10,16,02,36,18.20
2022,10,16,02,37,18.20
2022,10,16,02,38,18.20
2022,10,16,02,39,18.20
2022,10,16,02,40,18.20
2022,10,16,02,41,18.20
2022,10,16,02,42,18.20
2022,10,16,02,43,18.20
2022,10,16,02,44,18.20
2022,10,16,02,45,18.20
2022,10,16,02,46,18.20
2022,10,16,02,47,18.20
2022,10,16,02,48,18.30
2022,10,16,02,49,18.30
2022,10,16,02,50,18.30
2022,10,16,02,51,18.30
2022,10,16,02,52,18.30
2022,10,16,02,53,18.30
2022,10,16,02,54,18.30
2022,10,16,02,55,18.30
2022,10,16,02,56,18.30
2022,10,16,02,57,18.30
2022,10,16,02,58,18.30
2022,10,16,02,59,18.30
2022,10,16,03,00,18.30
2022,10,16,03,01,18.30
2022,10,16,03,02,18.30
2022,10,16,03,03,18.30
2022,10,16,03,04,18.30
2022,10,16,03,05,18.20
2022,10,16,03,06,18.20
2022,10,16,03,07,18.20
2022,10,16,03,08,18.20
2022,10,16,03,09,18.20
2022,10,16,03,10,18.20
2022,10,16,03,11,18.20
2022,10,16,03,12,18.20
2022,10,16,03,13,18.20
2022,10,16,03,14,18.20
2022,10,16,03,15,18.20
2022,10,16,03,16,18.20
2022,10,16,03,17,18.20
2022,10,16,03,18,18.10
2022,10,16,03,19,18.10
2022,10,16,03,20,18.10
2022,10,16,03,21,18.00
2022,10,16,03,22,18.00
2022,10,16,03,23,18.00
2022,10,16,03,24,18.00
2022,10,16,03,25,17.90
2022,10,16,03,26,17.90
2022,10,16,03,27,17.90
2022,10,16,03,28,17.90
2022,10,16,03,29,17.90
2022,10,16,03,30,17.90
2022,10,16,03,31,17.90
2022,10,16,03,32,17.90
2022,10,16,03,33,17.90
2022,10,16,03,34,17.90
2022,10,16,03,35,17.90
2022,10,16,03,36,17.80
2022,10,16,03,37,17.80
2022,10,16,03,38,17.80
2022,10,16,03,39,17.80
2022,10,16,03,40,17.80
2022,10,16,03,41,17.80
2022,10,16,03,42,17.70
2022,10,16,03,43,17.70
2022,10,16,03,44,17.70
2022,10,16,03,45,17.70
2022,10,16,03,46,17.70
2022,10,16,03,47,17.70
2022,10,16,03,48,17.70
2022,10,16,03,49,17.70
2022,10,16,03,50,17.70
2022,10,16,03,51,17.70
2022,10,16,03,52,17.70
2022,10,16,03,53,17.70
2022,10,16,03,54,17.70
2022,10,16,03,55,17.70
2022,10,16,03,56,17.70
2022,10,16,03,57,17.70
2022,10,16,03,58,17.70
2022,10,16,03,59,17.70
2022,10,16,04,00,17.70
2022,10,16,04,01,17.70
2022,10,16,04,02,17.70
2022,10,16,04,03,17.70
2022,10,16,04,04,17.70
2022,10,16,04,05,17.70
2022,10,16,04,06,17.70
2022,10,16,04,07,17.70
2022,10,16,04,08,17.70
2022,10,16,04,09,17.70
2022,10,16,04,10,17.70
2022,10,16,07,51,17.20
2022,10,16,07,52,17.20
2022,10,16,07,53,17.30
2022,10,16,07,54,17.30
2022,10,16,07,55,17.30
2022,10,16,07,56,17.30
2022,10,16,07,57,17.30
2022,10,16,07,58,17.30
2022,10,16,07,59,17.30
2022,10,16,08,00,17.40
2022,10,16,08,01,17.40
2022,10,16,08,02,17.40
2022,10,16,08,03,17.40
2022,10,16,08,04,17.40
2022,10,16,08,05,17.40
2022,10,16,08,06,17.40
2022,10,16,08,07,17.40
2022,10,16,08,08,17.40
2022,10,16,08,09,17.40
2022,10,16,08,10,17.40
2022,10,16,08,11,17.50
2022,10,16,08,12,17.50
2022,10,16,08,13,17.50
2022,10,16,08,14,17.60
2022,10,16,08,15,17.60
2022,10,16,08,16,17.60
2022,10,16,08,17,17.70
2022,10,16,08,18,17.70
2022,10,16,08,19,17.70
2022,10,16,08,20,17.70
2022,10,16,08,21,17.80
2022,10,16,08,22,17.80
2022,10,16,08,23,17.90
2022,10,16,08,24,17.90
2022,10,16,08,25,18.00
2022,10,16,08,26,18.00
2022,10,16,08,27,18.00
2022,10,16,08,28,18.10
2022,10,16,08,29,18.10
2022,10,16,08,30,18.10
2022,10,16,08,31,18.20
2022,10,16,08,32,18.20
2022,10,16,08,33,18.20
2022,10,16,08,34,18.20
2022,10,16,08,35,18.30
2022,10,16,08,36,18.30
2022,10,16,08,37,18.30
2022,10,16,08,38,18.40
2022,10,16,08,39,18.40
2022,10,16,08,40,18.40
2022,10,16,08,41,18.40
2022,10,16,08,42,18.40
2022,10,16,08,43,18.40
2022,10,16,08,44,18.40
2022,10,16,08,45,18.50
2022,10,16,08,46,18.50
2022,10,16,08,47,18.50
2022,10,16,08,48,18.50
2022,10,16,08,49,18.50
2022,10,16,08,50,18.60
2022,10,16,08,51,18.60
2022,10,16,08,52,18.60
2022,10,16,08,53,18.60
2022,10,16,08,54,18.60
2022,10,16,08,55,18.60
2022,10,16,08,56,18.60
2022,10,16,08,57,18.70
2022,10,16,08,58,18.70
2022,10,16,08,59,18.70
2022,10,16,09,00,18.70
2022,10,16,09,01,18.70
2022,10,16,09,02,18.60
2022,10,16,09,03,18.60
2022,10,16,09,04,18.60
2022,10,16,09,05,18.60
2022,10,16,09,06,18.60
2022,10,16,09,07,18.70
2022,10,16,09,08,18.70
2022,10,16,09,09,18.70
2022,10,16,09,10,18.70
2022,10,16,09,11,18.70
2022,10,16,09,12,18.70
2022,10,16,09,13,18.70
2022,10,16,09,14,18.70
2022,10,16,09,15,18.70
2022,10,16,09,16,18.80
2022,10,16,09,17,18.80
2022,10,16,09,18,18.80
2022,10,16,09,19,18.80
2022,10,16,09,20,18.80
2022,10,16,09,21,18.90
2022,10,16,09,22,18.90
2022,10,16,09,23,18.90
2022,10,16,09,24,18.90
2022,10,16,09,25,19.00
2022,10,16,09,26,19.00
2022,10,16,09,27,19.00
2022,10,16,09,28,19.00
2022,10,16,09,29,19.10
2022,10,16,09,30,19.10
2022,10,16,09,31,19.10
2022,10,16,09,32,19.10
2022,10,16,09,33,19.10
2022,10,16,09,34,19.10
2022,10,16,09,35,19.20
2022,10,16,09,36,19.20
2022,10,16,09,37,19.20
2022,10,16,09,38,19.20
2022,10,16,09,39,19.20
2022,10,16,09,40,19.20
2022,10,16,09,41,19.20
2022,10,16,09,42,19.20
2022,10,16,09,43,19.20
2022,10,16,09,44,19.20
2022,10,16,09,45,19.20
2022,10,16,09,46,19.20
2022,10,16,09,47,19.20
2022,10,16,09,48,19.30
2022,10,16,09,49,19.30
2022,10,16,09,50,19.30
2022,10,16,09,51,19.30
2022,10,16,09,52,19.30
2022,10,16,09,53,19.30
2022,10,16,09,54,19.30
2022,10,16,09,55,19.40
2022,10,16,09,56,19.40
2022,10,16,09,57,19.40
2022,10,16,09,58,19.40
2022,10,16,09,59,19.50
2022,10,16,10,00,19.50
2022,10,16,10,01,19.60
2022,10,16,10,02,19.60
2022,10,16,10,03,19.60
2022,10,16,10,04,19.60
2022,10,16,10,05,19.70
2022,10,16,10,06,19.70
2022,10,16,10,07,19.70
2022,10,16,10,08,19.70
2022,10,16,10,09,19.70
2022,10,16,10,10,19.80
2022,10,16,10,11,19.80
2022,10,16,10,12,19.80
2022,10,16,10,13,19.80
2022,10,16,10,14,19.90
2022,10,16,10,15,19.90
2022,10,16,10,16,19.90
2022,10,16,10,17,20.00
2022,10,16,10,18,20.00
2022,10,16,10,19,20.00
2022,10,16,10,20,20.10
2022,10,16,10,21,20.10
2022,10,16,10,22,20.10
2022,10,16,10,23,20.20
2022,10,16,10,24,20.20
2022,10,16,10,25,20.20
2022,10,16,10,26,20.20
2022,10,16,10,27,20.30
2022,10,16,10,28,20.30
2022,10,16,10,29,20.30
2022,10,16,10,30,20.30
2022,10,16,10,31,20.30
2022,10,16,10,32,20.30
2022,10,16,10,33,20.40
2022,10,16,10,34,20.40
2022,10,16,10,35,20.40
2022,10,16,10,36,20.40
2022,10,16,10,37,20.40
2022,10,16,10,38,20.40
2022,10,16,10,39,20.40
2022,10,16,10,40,20.50
2022,10,16,10,41,20.50
2022,10,16,10,42,20.50
2022,10,16,10,43,20.50
2022,10,16,10,44,20.60
2022,10,16,10,45,20.60
2022,10,16,10,46,20.60
2022,10,16,10,47,20.60
2022,10,16,10,48,20.70
2022,10,16,10,49,20.70
2022,10,16,10,50,20.80
2022,10,16,10,51,20.80
2022,10,16,10,52,20.80
2022,10,16,10,53,20.80
2022,10,16,10,54,20.80
2022,10,16,10,55,20.80
2022,10,16,10,56,20.80
2022,10,16,10,57,20.80
2022,10,16,10,58,20.80
2022,10,16,10,59,20.80
2022,10,16,11,00,20.90
2022,10,16,11,01,20.90
2022,10,16,11,02,21.00
2022,10,16,11,03,21.00
2022,10,16,11,04,21.10
2022,10,16,11,05,21.10
2022,10,16,11,06,21.10
2022,10,16,11,07,21.10
2022,10,16,11,08,21.10
2022,10,16,11,09,21.10
2022,10,16,11,10,21.10
2022,10,16,11,11,21.00
2022,10,16,11,12,21.00
2022,10,16,11,13,21.10
2022,10,16,11,14,21.10
2022,10,16,11,15,21.20
2022,10,16,11,16,21.20
2022,10,16,11,17,21.20
2022,10,16,11,18,21.20
2022,10,16,11,19,21.20
2022,10,16,11,20,21.30
2022,10,16,11,21,21.30
2022,10,16,11,22,21.40
2022,10,16,11,23,21.40
2022,10,16,11,24,21.40
2022,10,16,11,25,21.40
2022,10,16,11,26,21.40
2022,10,16,11,27,21.40
2022,10,16,11,28,21.40
2022,10,16,11,29,21.40
2022,10,16,11,30,21.40
2022,10,16,11,31,21.40
2022,10,16,11,32,21.40
2022,10,16,11,33,21.40
2022,10,16,11,34,21.40
2022,10,16,11,35,21.40
2022,10,16,11,36,21.50
2022,10,16,11,37,21.50
2022,10,16,11,38,21.60
2022,10,16,11,39,21.60
2022,10,16,11,40,21.60
2022,10,16,11,41,21.60
2022,10,16,11,42,21.60
2022,10,16,11,43,21.60
2022,10,16,11,44,21.60
2022,10,16,11,45,21.60
2022,10,16,11,46,21.60
2022,10,16,11,47,21.60
2022,10,16,11,48,21.60
2022,10,16,11,49,21.70
2022,10,16,11,50,21.70
2022,10,16,11,51,21.80
2022,10,16,11,52,21.80
2022,10,16,11,53,21.80
2022,10,16,11,54,21.90
2022,10,16,11,55,21.90
2022,10,16,11,56,21.90
2022,10,16,11,57,21.90
2022,10,16,11,58,22.00
2022,10,16,11,59,22.00
2022,10,16,12,00,22.00
2022,10,16,12,01,22.10
2022,10,16,12,02,22.10
2022,10,16,12,03,22.10
2022,10,16,12,04,22.10
2022,10,16,12,05,22.10
2022,10,16,12,06,22.10
2022,10,16,12,07,22.10
2022,10,16,12,08,22.10
2022,10,16,12,09,22.10
2022,10,16,12,10,22.20
2022,10,16,12,11,22.20
2022,10,16,12,12,22.30
2022,10,16,12,13,22.30
2022,10,16,12,14,22.30
2022,10,16,12,15,22.40
2022,10,16,12,16,22.40
2022,10,16,12,17,22.50
2022,10,16,12,18,22.60
2022,10,16,12,19,22.60
2022,10,16,12,20,22.60
2022,10,16,12,21,22.60
2022,10,16,12,22,22.60
2022,10,16,12,23,22.60
2022,10,16,12,24,22.60
2022,10,16,12,25,22.60
2022,10,16,12,26,22.60
2022,10,16,12,27,22.60
2022,10,16,12,28,22.60
2022,10,16,12,29,22.50
2022,10,16,12,30,22.50
2022,10,16,12,31,22.50
2022,10,16,12,32,22.50
2022,10,16,12,33,22.50
2022,10,16,12,34,22.50
2022,10,16,12,35,22.60
2022,10,16,12,36,22.60
2022,10,16,12,37,22.60
2022,10,16,12,38,22.60
2022,10,16,12,39,22.60
2022,10,16,12,40,22.60
2022,10,16,12,41,22.60
2022,10,16,12,42,22.60
2022,10,16,12,43,22.60
2022,10,16,12,44,22.60
2022,10,16,12,45,22.70
2022,10,16,12,46,22.70
2022,10,16,12,47,22.70
2022,10,16,12,48,22.70
2022,10,16,12,49,22.70
2022,10,16,12,50,22.60
2022,10,16,12,51,22.60
2022,10,16,12,52,22.60
2022,10,16,12,53,22.60
2022,10,16,12,54,22.60
2022,10,16,12,55,22.60
2022,10,16,12,56,22.50
2022,10,16,12,57,22.50
2022,10,16,12,58,22.50
2022,10,16,12,59,22.60
2022,10,16,13,00,22.60
2022,10,16,13,01,22.60
2022,10,16,13,02,22.70
2022,10,16,13,03,22.60
2022,10,16,13,04,22.60
2022,10,16,13,05,22.60
2022,10,16,13,06,22.60
2022,10,16,13,07,22.60
2022,10,16,13,08,22.60
2022,10,16,13,09,22.60
2022,10,16,13,10,22.60
2022,10,16,13,11,22.60
2022,10,16,13,12,22.70
2022,10,16,13,13,22.70
2022,10,16,13,14,22.70
2022,10,16,13,15,22.70
2022,10,16,13,16,22.70
2022,10,16,13,17,22.70
2022,10,16,13,18,22.70
2022,10,16,13,19,22.80
2022,10,16,13,20,22.80
2022,10,16,13,21,22.80
2022,10,16,13,22,22.80
2022,10,16,13,23,22.80
2022,10,16,13,24,22.80
2022,10,16,13,25,22.80
2022,10,16,13,26,22.90
2022,10,16,13,27,22.90
2022,10,16,13,28,22.90
2022,10,16,13,29,22.90
2022,10,16,13,30,22.90
2022,10,16,13,31,22.90
2022,10,16,13,32,22.90
2022,10,16,13,33,22.90
2022,10,16,13,34,22.90
2022,10,16,13,35,23.00
2022,10,16,13,36,23.00
2022,10,16,13,37,23.00
2022,10,16,13,38,23.10
2022,10,16,13,39,23.10
2022,10,16,13,40,23.10
2022,10,16,13,41,23.10
2022,10,16,13,42,23.10
2022,10,16,13,43,23.10
2022,10,16,13,44,23.20
2022,10,16,13,45,23.20
2022,10,16,13,46,23.20
2022,10,16,13,47,23.20
2022,10,16,13,48,23.30
2022,10,16,13,49,23.30
2022,10,16,13,50,23.30
2022,10,16,13,51,23.30
2022,10,16,13,52,23.30
2022,10,16,13,53,23.40
2022,10,16,13,54,23.40
2022,10,16,13,55,23.40
2022,10,16,13,56,23.50
2022,10,16,13,57,23.50
2022,10,16,13,58,23.50
2022,10,16,13,59,23.50
2022,10,16,14,00,23.50
2022,10,16,14,01,23.60
2022,10,16,14,02,23.60
2022,10,16,14,03,23.60
2022,10,16,14,04,23.70
2022,10,16,14,05,23.70
2022,10,16,14,06,23.80
2022,10,16,14,07,23.80
2022,10,16,14,08,23.80
2022,10,16,14,09,23.80
2022,10,16,14,10,23.90
2022,10,16,14,11,23.90
2022,10,16,14,12,23.90
2022,10,16,14,13,23.90
2022,10,16,14,14,23.90
2022,10,16,14,15,23.90
2022,10,16,14,16,23.90
2022,10,16,14,17,23.80
2022,10,16,14,18,23.80
2022,10,16,14,19,23.90
2022,10,16,14,20,23.90
2022,10,16,14,21,23.90
2022,10,16,14,22,23.90
2022,10,16,14,23,24.00
2022,10,16,14,24,24.00
2022,10,16,14,25,24.00
2022,10,16,14,26,24.00
2022,10,16,14,27,24.00
2022,10,16,14,28,24.00
2022,10,16,14,29,23.90
2022,10,16,14,30,23.90
2022,10,16,14,31,23.90
2022,10,16,14,32,23.90
2022,10,16,14,33,23.90
2022,10,16,14,34,23.80
2022,10,16,14,35,23.80
2022,10,16,14,36,23.90
2022,10,16,14,37,23.90
2022,10,16,14,38,23.90
2022,10,16,14,39,23.90
2022,10,16,14,40,24.00
2022,10,16,14,41,24.00
2022,10,16,14,42,24.00
2022,10,16,14,43,24.10
2022,10,16,14,44,24.10
2022,10,16,14,45,24.10
2022,10,16,14,46,24.10
2022,10,16,14,47,24.00
2022,10,16,14,48,24.00
2022,10,16,14,49,24.00
2022,10,16,14,50,24.00
2022,10,16,14,51,24.00
2022,10,16,14,52,24.00
2022,10,16,14,53,24.00
2022,10,16,14,54,24.00
2022,10,16,14,55,24.00
2022,10,16,14,56,24.00
2022,10,16,14,57,24.00
2022,10,16,14,58,24.00
2022,10,16,14,59,24.10
2022,10,16,15,00,24.10
2022,10,16,15,01,24.10
2022,10,16,15,02,24.10
2022,10,16,15,03,24.10
2022,10,16,15,04,24.10
2022,10,16,15,05,24.10
2022,10,16,15,06,24.10
2022,10,16,15,07,24.10
2022,10,16,15,08,24.10
2022,10,16,15,09,24.10
2022,10,16,15,10,24.10
2022,10,16,15,11,24.10
2022,10,16,15,12,24.20
2022,10,16,15,13,24.20
2022,10,16,15,14,24.20
2022,10,16,15,15,24.30
2022,10,16,15,16,24.30
2022,10,16,15,17,24.30
2022,10,16,15,18,24.30
2022,10,16,15,19,24.30
2022,10,16,15,20,24.30
2022,10,16,15,21,24.40
2022,10,16,15,22,24.40
2022,10,16,15,23,24.40
2022,10,16,15,24,24.40
2022,10,16,15,25,24.40
2022,10,16,15,26,24.40
2022,10,16,15,27,24.40
2022,10,16,15,28,24.40
2022,10,16,15,29,24.40
2022,10,16,15,30,24.40
2022,10,16,15,31,24.40
2022,10,16,15,32,24.40
2022,10,16,15,33,24.40
2022,10,16,15,34,24.40
2022,10,16,15,35,24.40
2022,10,16,15,36,24.40
2022,10,16,15,37,24.40
2022,10,16,15,38,24.40
2022,10,16,15,39,24.40
2022,10,16,15,40,24.50
2022,10,16,15,41,24.50
2022,10,16,15,42,24.50
2022,10,16,15,43,24.50
2022,10,16,15,44,24.50
2022,10,16,15,45,24.40
2022,10,16,15,46,24.40
2022,10,16,15,47,24.40
2022,10,16,15,48,24.50
2022,10,16,15,49,24.40
2022,10,16,15,50,24.50
2022,10,16,15,51,24.50
2022,10,16,15,52,24.60
2022,10,16,15,53,24.60
2022,10,16,15,54,24.60
2022,10,16,15,55,24.60
2022,10,16,15,56,24.70
2022,10,16,15,57,24.70
2022,10,16,15,58,24.70
2022,10,16,15,59,24.70
2022,10,16,16,00,24.70
2022,10,16,16,01,24.70
2022,10,16,16,02,24.60
2022,10,16,16,03,24.50
2022,10,16,16,04,24.40
2022,10,16,16,05,24.40
2022,10,16,16,06,24.30
2022,10,16,16,07,24.20
2022,10,16,16,08,24.20
2022,10,16,16,09,24.10
2022,10,16,16,10,24.10
2022,10,16,16,11,24.00
2022,10,16,16,12,24.00
2022,10,16,16,13,23.90
2022,10,16,16,14,23.90
2022,10,16,16,15,23.90
2022,10,16,16,16,23.80
2022,10,16,16,17,23.80
2022,10,16,16,18,23.70
2022,10,16,16,19,23.70
2022,10,16,16,20,23.60
2022,10,16,16,21,23.50
2022,10,16,16,22,23.40
2022,10,16,16,23,23.30
2022,10,16,16,24,23.10
2022,10,16,16,25,22.90
2022,10,16,16,26,22.80
2022,10,16,16,27,22.60
2022,10,16,16,28,22.50
2022,10,16,16,29,22.30
2022,10,16,16,30,22.20
2022,10,16,16,31,22.10
2022,10,16,16,32,22.00
2022,10,16,16,33,21.90
2022,10,16,16,34,21.80
2022,10,16,16,35,21.70
2022,10,16,16,36,21.60
2022,10,16,16,37,21.50
2022,10,16,16,38,21.40
2022,10,16,16,39,21.30
2022,10,16,16,40,21.30
2022,10,16,16,41,21.20
2022,10,16,16,42,21.10
2022,10,16,16,43,21.10
2022,10,16,16,44,21.00
2022,10,16,16,45,20.90
2022,10,16,16,46,20.90
2022,10,16,16,47,20.90
2022,10,16,16,48,20.80
2022,10,16,16,49,20.80
2022,10,16,16,50,20.80
2022,10,16,16,51,20.70
2022,10,16,16,52,20.70
2022,10,16,16,53,20.70
2022,10,16,16,54,20.70
2022,10,16,16,55,20.60
2022,10,16,16,56,20.60
2022,10,16,16,57,20.50
2022,10,16,16,58,20.40
2022,10,16,16,59,20.40
2022,10,16,17,00,20.30
2022,10,16,17,01,20.30
2022,10,16,17,02,20.30
2022,10,16,17,03,20.20
2022,10,16,17,04,20.20
2022,10,16,17,05,20.20
2022,10,16,17,06,20.10
2022,10,16,17,07,20.10
2022,10,16,17,08,20.00
2022,10,16,17,09,20.00
2022,10,16,17,10,20.00
2022,10,16,17,11,19.90
2022,10,16,17,12,19.90
2022,10,16,17,13,19.90
2022,10,16,17,14,19.90
2022,10,16,17,15,19.80
2022,10,16,17,16,19.80
2022,10,16,17,17,19.80
2022,10,16,17,18,19.80
2022,10,16,17,19,19.70
2022,10,16,17,20,19.70
2022,10,16,17,21,19.70
2022,10,16,17,22,19.70
2022,10,16,17,23,19.70
2022,10,16,17,24,19.70
2022,10,16,17,25,19.60
2022,10,16,17,26,19.60
2022,10,16,17,27,19.60
2022,10,16,17,28,19.60
2022,10,16,17,29,19.50
2022,10,16,17,30,19.50
2022,10,16,17,31,19.50
2022,10,16,17,32,19.40
2022,10,16,17,33,19.40
2022,10,16,17,34,19.40
2022,10,16,17,35,19.40
2022,10,16,17,36,19.40
2022,10,16,17,37,19.30
2022,10,16,17,38,19.30
2022,10,16,17,39,19.30
2022,10,16,17,40,19.30
2022,10,16,17,41,19.20
2022,10,16,17,42,19.20
2022,10,16,17,43,19.20
2022,10,16,17,44,19.10
2022,10,16,17,45,19.10
2022,10,16,17,46,19.10
2022,10,16,17,47,19.00
2022,10,16,17,48,19.00
2022,10,16,17,49,18.90
2022,10,16,17,50,18.90
2022,10,16,17,51,18.80
2022,10,16,17,52,18.80
2022,10,16,17,53,18.70
2022,10,16,17,54,18.70
2022,10,16,17,55,18.60
2022,10,16,17,56,18.60
2022,10,16,17,57,18.50
2022,10,16,17,58,18.50
2022,10,16,17,59,18.40
2022,10,16,18,00,18.40
2022,10,16,18,01,18.30
2022,10,16,18,02,18.30
2022,10,16,18,03,18.20
2022,10,16,18,04,18.20
2022,10,16,18,05,18.10
2022,10,16,18,06,18.10
2022,10,16,18,07,18.00
2022,10,16,18,08,18.00
2022,10,16,18,09,17.90
2022,10,16,18,10,17.90
2022,10,16,18,11,17.90
2022,10,16,18,12,17.80
2022,10,16,18,13,17.80
2022,10,16,18,14,17.80
2022,10,16,18,15,17.70
2022,10,16,18,16,17.70
2022,10,16,18,17,17.70
2022,10,16,18,18,17.60
2022,10,16,18,19,17.60
2022,10,16,18,20,17.60
2022,10,16,18,21,17.60
2022,10,16,18,22,17.50
2022,10,16,18,23,17.50
2022,10,16,18,24,17.50
2022,10,16,18,25,17.40
2022,10,16,18,26,17.40
2022,10,16,18,27,17.40
2022,10,16,18,28,17.40
2022,10,16,18,29,17.30
2022,10,16,18,30,17.30
2022,10,16,18,31,17.30
2022,10,16,18,32,17.30
2022,10,16,18,33,17.20
2022,10,16,18,34,17.20
2022,10,16,18,35,17.20
2022,10,16,18,36,17.20
2022,10,16,18,37,17.20
2022,10,16,18,38,17.10
2022,10,16,18,39,17.10
2022,10,16,18,40,17.10
2022,10,16,18,41,17.10
2022,10,16,18,42,17.00
2022,10,16,18,43,17.00
2022,10,16,18,44,17.00
2022,10,16,18,45,17.00
2022,10,16,18,46,16.90
2022,10,16,18,47,16.90
2022,10,16,18,48,16.90
2022,10,16,18,49,16.90
2022,10,16,18,50,16.90
2022,10,16,18,51,16.90
2022,10,16,18,52,16.90
2022,10,16,18,53,16.90
2022,10,16,18,54,16.90
2022,10,16,18,55,16.80
2022,10,16,18,56,16.80
2022,10,16,18,57,16.80
2022,10,16,18,58,16.80
2022,10,16,18,59,16.80
2022,10,16,19,00,16.70
2022,10,16,19,01,16.70
2022,10,16,19,02,16.70
2022,10,16,19,03,16.60
2022,10,16,19,04,16.60
2022,10,16,19,05,16.60
2022,10,16,19,06,16.60
2022,10,16,19,07,16.50
2022,10,16,19,08,16.50
2022,10,16,19,09,16.40
2022,10,16,19,10,16.40
2022,10,16,19,11,16.40
2022,10,16,19,12,16.40
2022,10,16,19,13,16.30
2022,10,16,19,14,16.30
2022,10,16,19,15,16.30
2022,10,16,19,16,16.30
2022,10,16,19,17,16.20
2022,10,16,19,18,16.20
2022,10,16,19,19,16.20
2022,10,16,19,20,16.20
2022,10,16,19,21,16.20
2022,10,16,19,22,16.10
2022,10,16,19,23,16.10
2022,10,16,19,24,16.10
2022,10,16,19,25,16.10
2022,10,16,19,26,16.10
2022,10,16,19,27,16.10
2022,10,16,19,28,16.00
2022,10,16,19,29,16.00
2022,10,16,19,30,16.00
2022,10,16,19,31,16.00
2022,10,16,19,32,16.00
2022,10,16,19,33,16.10
2022,10,16,19,34,16.10
2022,10,16,19,35,16.10
2022,10,16,19,36,16.10
2022,10,16,19,37,16.10
2022,10,16,19,38,16.10
2022,10,16,19,39,16.10
2022,10,16,19,40,16.10
2022,10,16,19,41,16.10
2022,10,16,19,42,16.10
2022,10,16,19,43,16.10
2022,10,16,19,44,16.10
2022,10,16,19,45,16.00
2022,10,16,19,46,16.00
2022,10,16,19,47,16.00
2022,10,16,19,48,15.90
2022,10,16,19,49,15.90
2022,10,16,19,50,15.90
2022,10,16,19,51,15.80
2022,10,16,19,52,15.80
2022,10,16,19,53,15.80
2022,10,16,19,54,15.80
2022,10,16,19,55,15.80
2022,10,16,19,56,15.80
2022,10,16,19,57,15.80
2022,10,16,19,58,15.80
2022,10,16,19,59,15.70
2022,10,16,20,00,15.70
2022,10,16,20,01,15.70
2022,10,16,20,02,15.70
2022,10,16,20,03,15.70
2022,10,16,20,04,15.60
2022,10,16,20,05,15.60
2022,10,16,20,06,15.60
2022,10,16,20,07,15.60
2022,10,16,20,08,15.50
2022,10,16,20,09,15.50
2022,10,16,20,10,15.40
2022,10,16,20,11,15.40
2022,10,16,20,12,15.40
2022,10,16,20,13,15.40
2022,10,16,20,14,15.40
2022,10,16,20,15,15.30
2022,10,16,20,16,15.30
2022,10,16,20,17,15.30
2022,10,16,20,18,15.30
2022,10,16,20,19,15.30
2022,10,16,20,20,15.30
2022,10,16,20,21,15.30
2022,10,16,20,22,15.30
2022,10,16,20,23,15.20
2022,10,16,20,24,15.20
2022,10,16,20,25,15.20
2022,10,16,20,26,15.20
2022,10,16,20,27,15.20
2022,10,16,20,28,15.10
2022,10,16,20,29,15.10
2022,10,16,20,30,15.10
2022,10,16,20,31,15.10
2022,10,16,20,32,15.00
2022,10,16,20,33,15.00
2022,10,16,20,34,15.00
2022,10,16,20,35,14.90
2022,10,16,20,36,14.90
2022,10,16,20,37,14.90
2022,10,16,20,38,14.90
2022,10,16,20,39,14.90
2022,10,16,20,40,14.80
2022,10,16,20,41,14.80
2022,10,16,20,42,14.80
2022,10,16,20,43,14.80
2022,10,16,20,44,14.80
2022,10,16,20,45,14.70
2022,10,16,20,46,14.70
2022,10,16,20,47,14.70
2022,10,16,20,48,14.70
2022,10,16,20,49,14.70
2022,10,16,20,50,14.70
2022,10,16,20,51,14.60
2022,10,16,20,52,14.60
2022,10,16,20,53,14.60
2022,10,16,20,54,14.60
2022,10,16,20,55,14.60
2022,10,16,20,56,14.60
2022,10,16,20,57,14.60
2022,10,16,20,58,14.60
2022,10,16,20,59,14.60